Hourly Data Report for October 04, 2017

All times are specified in Local Standard Time (LST). Add 1 hour to adjust for Daylight Saving Time where and when it is observed.

WHALE COVE A
NUNAVUT

62°14'24.000" N
92°35'53.000" W
12.20 m
2303990
YXN

Related Data

No related data is available for this station

Download Data

Hourly Data (October 2017)
Hourly Data Report for October 4, 2017
Temp Definition
°C
Dew Point Temp Definition
°C
Rel Hum Definition
%
Wind Dir Definition
10's deg

Wind Spd Definition
km/h
Visibility Definition
km
Stn Press Definition
kPa
Hmdx Definition


Wind Chill Definition


Weather Definition


TIME
00:00 Legend Double Dagger -1.1 -5.5 72 31 27 LegendMM 100.66   -8 LegendNANA
01:00 Legend Double Dagger -1.2 -6.4 68 30 28 LegendMM 100.63   -8 LegendNANA
02:00 Legend Double Dagger -2.2 -4.4 85 30 24 LegendMM 100.60   -9 LegendNANA
03:00 Legend Double Dagger -2.4 -4.5 85 32 28 LegendMM 100.57   -9 LegendNANA
04:00 Legend Double Dagger -3.5 -5.4 87 33 28 LegendMM 100.56   -11 LegendNANA
05:00 Legend Double Dagger -3.9 -7.2 78 32 30 LegendMM 100.53   -12 LegendNANA
06:00 Legend Double Dagger -3.5 -6.5 80 31 28 LegendMM 100.49   -11 LegendNANA
07:00 Legend Double Dagger -3.4 -6.3 81 32 37 LegendMM 100.45   -12 LegendNANA
08:00 Legend Double Dagger -3.7 -7.6 74 32 37 LegendMM 100.43   -12 LegendNANA
09:00 Legend Double Dagger -3.6 -8.7 68 32 42 LegendMM 100.41   -12 LegendNANA
10:00 Legend Double Dagger -3.5 -8.0 71 31 44 LegendMM 100.39   -12 LegendNANA
11:00 Legend Double Dagger -2.9 -7.8 69 32 45 LegendMM 100.32   -12 LegendNANA
12:00 Legend Double Dagger -2.5 -7.5 68 31 48 LegendMM 100.27   -11 LegendNANA
13:00 Legend Double Dagger -2.3 -7.2 69 31 50 LegendMM 100.22   -11 LegendNANA
14:00 Legend Double Dagger -2.3 -7.7 67 30 50 LegendMM 100.21   -11 LegendNANA
15:00 Legend Double Dagger -2.5 -7.1 71 31 44 LegendMM 100.20   -11 LegendNANA
16:00 Legend Double Dagger -2.2 -7.1 70 31 54 LegendMM 100.18   -11 LegendNANA
17:00 Legend Double Dagger -2.3 -6.7 72 31 47 LegendMM 100.14   -11 LegendNANA
18:00 Legend Double Dagger -2.1 -6.6 71 29 51 LegendMM 100.10   -11 LegendNANA
19:00 Legend Double Dagger -2.2 -6.5 72 30 46 LegendMM 100.05   -11 LegendNANA
20:00 Legend Double Dagger -2.5 -6.8 72 30 54 LegendMM 100.01   -12 LegendNANA
21:00 Legend Double Dagger -2.7 -6.4 76 30 54 LegendMM 99.96   -12 LegendNANA
22:00 Legend Double Dagger -3.1 -6.3 79 30 48 LegendMM 99.90   -12 LegendNANA
23:00 Legend Double Dagger -2.9 -6.4 77 30 52 LegendMM 99.89   -12 LegendNANA

Notes on Data Quality.

Legend

  • E = Estimated
  • M = Missing
  • NA = Not Available
  • ‡ = Partner data that is not subject to review by the National Climate Archives
Date modified: